ONEWEB-0599 (55155 NORAD) Tracking and Keplerian Element Data

This shows tracking and keplerian element data for the satellite.

Feedback or suggestion? Click here.




ElementValue
Catalog55155
NameONEWEB-0599
Epoch Orbit1119
Epoch Day84.89144887
Epoch Year2023
RAAN253.7206
Inclination86.6227
Eccentricity0.0011462
Argument of Perigee330.7397
Mean Anonmoly29.3173
Mean Motion14.65721933
Decay Rate1.662E-05
L11 55155U 23004R 23084.89144887 .00001662 00000+0 30097-3 0 9992
L22 55155 86.6227 253.7206 0011462 330.7397 29.3173 14.65721933 11193



Live tracking and technical data element details for ONEWEB-0599 (NORAD 55155). ONEWEB-0599 can be tracked NOW for your location showing map with azimuth and elevation plus other details from your city location.







IsCatalogInMostPopularTable: catalog: 55155, numindb: 15
Update: records affected: 1



GetName: 55155 ONEWEB-0599

Hit Count: updated at: Mon, 27 Mar 2023 07:30:57 GMT